GW6341 Weather Reports


Display with metric or nautical units.
time (UTC)temp
F
wind
direction
speed
MPH
gust
MPH
rain 1hr
in
rain 24hr
in
rain mn
in
humidity
%
barometer
mb
20260507191726 61 176 3.0 5.0 0.00 0.00 0.00 75 1018.7
20260507191224 62 89 2.0 2.0 0.00 0.00 0.00 71 1018.8
20260507190720 62 244 2.0 3.0 0.00 0.00 0.00 67 1018.6
20260507190219 60 152 3.0 3.0 0.00 0.00 0.00 77 1018.6
20260507185717 61 118 4.0 8.0 0.00 0.00 0.00 76 1018.6
20260507185213 61 80 1.0 1.0 0.00 0.00 0.00 75 1018.8
20260507184711 60 86 3.0 5.0 0.00 0.00 0.00 73 1018.7
20260507184209 61 182 3.0 3.0 0.00 0.00 0.00 74 1018.9
20260507183705 61 114 3.0 5.0 0.00 0.00 0.00 73 1018.7
20260507183202 60 212 3.0 5.0 0.00 0.00 0.00 71 1018.8
20260507182659 59 73 1.0 1.0 0.00 0.00 0.00 70 1018.8
20260507182155 59 106 3.0 5.0 0.00 0.00 0.00 74 1018.9
20260507181651 59 74 2.0 2.0 0.00 0.00 0.00 73 1019.0
20260507181148 59 92 5.0 6.0 0.00 0.00 0.00 73 1018.8
20260507180644 60 99 4.0 6.0 0.00 0.00 0.00 74 1018.8
20260507180142 61 134 1.0 2.0 0.00 0.00 0.00 71 1019.1
20260507175637 60 105 3.0 5.0 0.00 0.00 0.00 73 1019.0
20260507175135 60 239 2.0 2.0 0.00 0.00 0.00 71 1019.1
20260507174631 58 196 1.0 2.0 0.00 0.00 0.00 75 1019.1
20260507174130 58 50 0.0 0.0 0.00 0.00 0.00 76 1019.1
20260507173626 57 93 1.0 1.0 0.00 0.00 0.00 77 1019.2
20260507173123 57 139 2.0 2.0 0.00 0.00 0.00 79 1019.0
20260507172620 56 163 1.0 1.0 0.00 0.00 0.00 79 1019.4
20260507172117 56 118 1.0 1.0 0.00 0.00 0.00 80 1019.3
20260507171612 56 164 2.0 2.0 0.00 0.00 0.00 80 1019.2
20260507171109 57 119 2.0 2.0 0.00 0.00 0.00 83 1019.3
20260507170606 57 173 2.0 2.0 0.00 0.00 0.00 81 1019.2
20260507170103 58 161 1.0 2.0 0.00 0.00 0.00 80 1018.9
20260507165558 57 188 3.0 3.0 0.00 0.00 0.00 79 1019.1
20260507165055 58 162 3.0 5.0 0.00 0.00 0.00 82 1019.2
20260507164551 57 164 3.0 3.0 0.00 0.00 0.00 77 1019.0
20260507164049 57 55 1.0 2.0 0.00 0.00 0.00 81 1019.2
20260507163546 57 79 0.0 0.0 0.00 0.00 0.00 85 1019.2
20260507163044 55 141 1.0 1.0 0.00 0.00 0.00 83 1019.3
20260507162544 54 132 3.0 3.0 0.00 0.00 0.00 86 1019.4
20260507162041 54 142 0.0 1.0 0.00 0.00 0.00 88 1019.4
20260507161539 54 147 1.0 1.0 0.00 0.00 0.00 87 1019.1
20260507161034 54 190 2.0 2.0 0.00 0.00 0.00 87 1019.4
20260507160530 54 60 1.0 2.0 0.00 0.00 0.00 87 1019.3
20260507160027 54 73 0.0 0.0 0.00 0.00 0.00 86 1019.1
20260507155522 54 155 2.0 2.0 0.00 0.00 0.00 88 1019.3
20260507155020 54 58 0.0 0.0 0.00 0.00 0.00 87 1019.5
20260507154516 53 85 1.0 1.0 0.00 0.00 0.00 89 1019.4
20260507154013 53 66 0.0 1.0 0.00 0.00 0.00 89 1019.4
20260507153510 53 91 0.0 0.0 0.00 0.00 0.00 88 1019.4
20260507153006 53 77 0.0 1.0 0.00 0.00 0.00 90 1019.3
20260507152502 53 65 0.0 0.0 0.00 0.00 0.00 90 1019.5
20260507151959 53 105 1.0 1.0 0.00 0.00 0.00 90 1019.4
20260507151455 53 90 0.0 1.0 0.00 0.00 0.00 90 1019.4
20260507150952 52 91 1.0 1.0 0.00 0.00 0.00 92 1019.5
20260507150449 53 103 1.0 2.0 0.00 0.00 0.00 91 1019.6
20260507145945 52 89 1.0 1.0 0.00 0.00 0.00 91 1019.3
20260507145441 52 90 1.0 1.0 0.00 0.00 0.00 92 1019.2
20260507144938 52 89 0.0 0.0 0.00 0.00 0.00 94 1019.4
20260507144435 51 89 1.0 1.0 0.00 0.00 0.00 93 1019.4
20260507143932 51 82 1.0 1.0 0.00 0.00 0.00 94 1019.5
20260507143430 51 79 1.0 1.0 0.00 0.00 0.00 95 1019.4
20260507142926 51 78 1.0 1.0 0.00 0.00 0.00 95 1019.5
20260507142422 51 78 1.0 1.0 0.00 0.00 0.00 95 1019.4
20260507141919 51 63 0.0 0.0 0.00 0.00 0.00 95 1019.4
20260507141415 51 63 0.0 0.0 0.00 0.00 0.00 96 1019.3
20260507140912 51 63 0.0 0.0 0.00 0.00 0.00 97 1019.2
20260507140408 50 63 0.0 0.0 0.00 0.00 0.00 97 1019.2
20260507135907 50 63 0.0 0.0 0.00 0.00 0.00 97 1019.0
20260507135403 50 62 0.0 0.0 0.00 0.00 0.00 97 1019.3
20260507134900 50 32 0.0 0.0 0.00 0.00 0.00 97 1019.0
20260507134356 50 6 0.0 0.0 0.00 0.00 0.00 97 1019.1
20260507133852 50 9 0.0 0.0 0.00 0.00 0.00 97 1019.2
20260507133348 50 7 0.0 0.0 0.00 0.00 0.00 97 1018.8
20260507132847 50 36 0.0 0.0 0.00 0.00 0.00 97 1018.8
20260507132343 50 37 0.0 0.0 0.00 0.00 0.00 98 1019.0
20260507131840 50 18 0.0 0.0 0.00 0.00 0.00 98 1019.1
20260507131337 50 39 0.0 0.0 0.00 0.00 0.00 98 1019.1
20260507130834 50 39 0.0 0.0 0.00 0.00 0.00 98 1018.9
20260507130331 50 40 0.0 0.0 0.00 0.00 0.00 98 1019.2
20260507125830 50 40 0.0 0.0 0.00 0.00 0.00 98 1019.1
20260507125327 50 40 0.0 0.0 0.00 0.00 0.00 98 1019.2
20260507124824 50 40 0.0 0.0 0.00 0.00 0.00 98 1019.2
20260507124320 50 40 0.0 0.0 0.00 0.00 0.00 98 1019.3
20260507123819 50 40 0.0 0.0 0.00 0.00 0.00 98 1018.9
20260507123316 50 40 0.0 0.0 0.00 0.00 0.00 98 1019.0
20260507122812 50 39 0.0 0.0 0.00 0.00 0.00 97 1019.1
20260507122308 50 39 0.0 0.0 0.00 0.00 0.00 97 1019.2
20260507121804 50 69 0.0 0.0 0.00 0.00 0.00 97 1019.3
20260507121300 50 58 0.0 0.0 0.00 0.00 0.00 96 1019.1
20260507120756 50 11 0.0 0.0 0.00 0.00 0.00 96 1019.3
20260507120253 50 11 0.0 0.0 0.00 0.00 0.00 96 1019.3
20260507115749 50 10 0.0 1.0 0.00 0.00 0.00 96 1019.3
20260507115245 50 48 0.0 0.0 0.00 0.00 0.00 97 1019.4
20260507114740 50 68 0.0 0.0 0.00 0.00 0.00 97 1019.5
20260507114238 50 68 0.0 0.0 0.00 0.00 0.00 97 1019.5
20260507113735 50 68 0.0 0.0 0.00 0.00 0.00 96 1019.5
20260507113232 50 68 0.0 0.0 0.00 0.00 0.00 96 1019.4
20260507112729 50 68 0.0 0.0 0.00 0.00 0.00 96 1019.5
20260507112226 50 68 0.0 0.0 0.00 0.00 0.00 96 1019.5
20260507111724 50 68 0.0 0.0 0.00 0.00 0.00 96 1019.4
20260507111221 50 68 0.0 0.0 0.00 0.00 0.00 96 1019.5
20260507110716 50 68 0.0 0.0 0.00 0.00 0.00 96 1019.5
20260507110213 50 68 0.0 0.0 0.00 0.00 0.00 96 1019.8
20260507105710 50 68 0.0 0.0 0.00 0.00 0.00 96 1019.8
20260507105206 50 68 0.0 0.0 0.00 0.00 0.00 96 1019.8
20260507104704 50 68 0.0 0.0 0.00 0.00 0.00 96 1019.6
20260507104200 50 68 0.0 0.0 0.00 0.00 0.00 96 1019.7
20260507103656 50 68 0.0 0.0 0.00 0.00 0.00 96 1019.6
20260507103153 50 68 0.0 0.0 0.00 0.00 0.00 96 1019.7
20260507102649 50 68 0.0 0.0 0.00 0.00 0.00 96 1019.6
20260507102145 50 68 0.0 0.0 0.00 0.00 0.00 96 1019.8
20260507101641 50 68 0.0 0.0 0.00 0.00 0.00 96 1019.7
20260507101137 50 68 0.0 0.0 0.00 0.00 0.00 96 1019.7
20260507100635 50 68 0.0 0.0 0.00 0.00 0.00 96 1019.7
20260507100133 50 68 0.0 0.0 0.00 0.00 0.00 96 1019.7
20260507095631 50 68 0.0 0.0 0.00 0.00 0.00 96 1019.7
20260507095127 50 68 0.0 0.0 0.00 0.00 0.00 95 1019.9
20260507094624 50 68 0.0 0.0 0.00 0.00 0.00 95 1019.9
20260507094120 50 68 0.0 0.0 0.00 0.00 0.00 95 1020.2
20260507093618 50 69 0.0 0.0 0.00 0.00 0.00 95 1020.0
20260507093116 50 70 0.0 0.0 0.00 0.00 0.00 95 1020.1
20260507092612 50 70 0.0 0.0 0.00 0.00 0.00 95 1020.1
20260507092109 50 30 0.0 0.0 0.00 0.00 0.00 95 1020.3
20260507091606 49 30 0.0 0.0 0.00 0.00 0.00 95 1020.2
20260507091102 49 30 0.0 0.0 0.00 0.00 0.00 95 1020.3
20260507090558 49 30 0.0 0.0 0.00 0.00 0.00 95 1020.3
20260507090055 49 30 0.0 0.0 0.00 0.00 0.00 95 1020.3
20260507085552 49 30 0.0 0.0 0.00 0.00 0.00 95 1020.3
20260507085049 49 30 0.0 0.0 0.00 0.00 0.00 96 1020.5
20260507084545 49 30 0.0 0.0 0.00 0.00 0.00 96 1020.3
20260507084042 49 30 0.0 0.0 0.00 0.00 0.00 96 1020.2
20260507083539 49 30 0.0 0.0 0.00 0.00 0.00 96 1020.2
20260507083036 49 30 0.0 0.0 0.00 0.00 0.00 96 1020.3
20260507082532 49 30 0.0 0.0 0.00 0.00 0.00 97 1020.3
20260507082028 49 30 0.0 0.0 0.00 0.00 0.00 96 1020.2
20260507081525 49 30 0.0 0.0 0.00 0.00 0.00 96 1020.2
20260507081022 49 30 0.0 0.0 0.00 0.00 0.00 97 1020.2
20260507080517 49 30 0.0 0.0 0.00 0.00 0.00 97 1020.0
20260507080014 49 30 0.0 0.0 0.00 0.00 0.00 97 1020.3
20260507075509 49 30 0.0 0.0 0.00 0.00 0.00 97 1020.3
20260507075006 48 30 0.0 0.0 0.00 0.00 0.00 97 1020.3
20260507074503 48 30 0.0 0.0 0.00 0.00 0.00 97 1020.4
20260507074001 48 30 0.0 0.0 0.00 0.00 0.00 97 1020.2
20260507073457 48 30 0.0 0.0 0.00 0.00 0.00 97 1020.6
20260507072954 48 30 0.0 0.0 0.00 0.00 0.00 97 1020.4
20260507072451 49 30 0.0 0.0 0.00 0.00 0.00 97 1020.2
20260507071948 48 29 0.0 0.0 0.00 0.00 0.00 97 1020.3
20260507071445 48 29 0.0 0.0 0.00 0.00 0.00 98 1020.1
20260507070942 48 38 0.0 0.0 0.00 0.00 0.00 98 1020.4
20260507070440 48 38 0.0 0.0 0.00 0.00 0.00 98 1020.0
20260507065936 48 37 0.0 0.0 0.00 0.00 0.00 98 1020.2
20260507065433 47 38 0.0 0.0 0.00 0.00 0.00 98 1020.2
20260507064930 47 39 0.0 0.0 0.00 0.00 0.00 98 1020.3
20260507064428 47 39 0.0 0.0 0.00 0.00 0.00 98 1020.4
20260507063926 48 39 0.0 0.0 0.00 0.00 0.00 98 1020.3
20260507063422 48 39 0.0 0.0 0.00 0.00 0.00 98 1020.3
20260507062920 48 39 0.0 0.0 0.00 0.00 0.00 97 1020.2
20260507062417 48 39 0.0 0.0 0.00 0.00 0.00 97 1020.3
20260507061914 48 39 0.0 0.0 0.00 0.00 0.00 97 1020.2
20260507061412 48 39 0.0 0.0 0.00 0.00 0.00 97 1020.2
20260507060910 48 39 0.0 0.0 0.00 0.00 0.00 97 1020.3
20260507060406 49 39 0.0 0.0 0.00 0.00 0.00 97 1020.4
20260507055903 49 39 0.0 0.0 0.00 0.00 0.00 96 1020.2
20260507055358 49 39 0.0 0.0 0.00 0.00 0.00 96 1020.5
20260507054856 49 47 0.0 0.0 0.00 0.00 0.00 96 1020.3
20260507054352 49 22 0.0 0.0 0.00 0.00 0.00 96 1020.4
20260507053849 50 22 1.0 1.0 0.00 0.00 0.00 95 1020.2
20260507053347 50 32 0.0 0.0 0.00 0.00 0.00 96 1020.1
20260507052845 50 32 0.0 0.0 0.00 0.00 0.00 95 1020.2
20260507052342 50 32 0.0 1.0 0.00 0.00 0.00 95 1020.3
20260507051839 50 31 0.0 0.0 0.00 0.00 0.00 95 1020.3
20260507051337 50 31 0.0 1.0 0.00 0.00 0.00 95 1020.3
20260507050833 50 32 0.0 0.0 0.00 0.00 0.00 95 1020.3
20260507050330 50 32 0.0 0.0 0.00 0.00 0.00 95 1020.3
20260507045827 50 38 0.0 0.0 0.00 0.00 0.00 95 1020.2
20260507045323 51 36 0.0 1.0 0.00 0.00 0.00 95 1020.1
20260507044820 51 36 0.0 1.0 0.00 0.00 0.00 95 1020.1
20260507044317 51 22 0.0 1.0 0.00 0.00 0.00 95 1019.9
20260507043813 51 21 0.0 0.0 0.00 0.00 0.00 95 1019.9
20260507043310 51 24 0.0 1.0 0.00 0.00 0.00 94 1020.1
20260507042806 51 27 1.0 1.0 0.00 0.00 0.00 94 1020.1
20260507042301 51 28 0.0 0.0 0.00 0.00 0.00 94 1020.0
20260507041759 51 25 1.0 1.0 0.00 0.00 0.00 93 1019.7
20260507041255 51 28 1.0 1.0 0.00 0.00 0.00 93 1019.8
20260507040752 51 28 0.0 1.0 0.00 0.00 0.00 93 1019.8
20260507040248 52 20 1.0 1.0 0.00 0.00 0.00 93 1019.8
20260507035745 52 28 1.0 1.0 0.00 0.00 0.00 92 1019.4
20260507035240 53 36 0.0 0.0 0.00 0.00 0.00 91 1019.4
20260507034738 53 37 0.0 1.0 0.00 0.00 0.00 91 1019.5
20260507034235 53 68 0.0 0.0 0.00 0.00 0.00 90 1019.3
20260507033733 54 30 0.0 1.0 0.00 0.00 0.00 90 1019.5
20260507033230 54 45 0.0 0.0 0.00 0.00 0.00 90 1019.4
20260507032728 54 36 0.0 1.0 0.00 0.00 0.00 90 1019.4
20260507032223 54 38 0.0 0.0 0.00 0.00 0.00 90 1019.4
20260507031720 54 36 0.0 0.0 0.00 0.00 0.00 89 1019.3
20260507031217 55 50 0.0 1.0 0.00 0.00 0.00 88 1019.2
20260507030714 55 59 0.0 0.0 0.00 0.00 0.00 87 1019.2
20260507030211 55 69 0.0 0.0 0.00 0.00 0.00 87 1019.3
20260507025708 56 57 0.0 0.0 0.00 0.00 0.00 86 1019.0
20260507025205 56 59 0.0 0.0 0.00 0.00 0.00 85 1019.3
20260507024703 57 67 0.0 0.0 0.00 0.00 0.00 85 1019.2
20260507024200 57 69 0.0 0.0 0.00 0.00 0.00 84 1018.9
20260507023655 57 37 1.0 1.0 0.00 0.00 0.00 84 1019.0
20260507023153 58 71 0.0 0.0 0.00 0.00 0.00 83 1019.1
20260507022650 58 108 0.0 1.0 0.00 0.00 0.00 83 1019.0
20260507022146 59 79 0.0 0.0 0.00 0.00 0.00 82 1019.0
20260507021642 59 131 1.0 1.0 0.00 0.00 0.00 80 1019.4
20260507021137 59 80 0.0 0.0 0.00 0.00 0.00 80 1019.2
20260507020636 59 143 3.0 5.0 0.00 0.00 0.00 81 1019.1
20260507020132 59 77 0.0 0.0 0.00 0.00 0.00 81 1019.0
20260507015631 60 90 0.0 0.0 0.00 0.00 0.00 81 1019.1
20260507015128 60 193 3.0 3.0 0.00 0.00 0.00 80 1019.1
20260507014624 60 103 1.0 2.0 0.00 0.00 0.00 80 1019.1
20260507014120 61 187 2.0 2.0 0.00 0.00 0.00 78 1019.1
20260507013617 61 153 3.0 5.0 0.00 0.00 0.00 79 1019.0
20260507013114 61 108 3.0 3.0 0.00 0.00 0.00 79 1019.0
20260507012612 62 195 3.0 3.0 0.00 0.00 0.00 77 1019.1
20260507012107 62 183 2.0 2.0 0.00 0.00 0.00 77 1019.2
20260507011605 62 152 2.0 2.0 0.00 0.00 0.00 76 1018.9
20260507011101 62 117 4.0 6.0 0.00 0.00 0.00 77 1019.2
20260507010556 63 148 2.0 2.0 0.00 0.00 0.00 77 1019.3
20260507010052 63 120 1.0 1.0 0.00 0.00 0.00 78 1019.2
20260507005550 63 164 4.0 5.0 0.00 0.00 0.00 76 1019.2
20260507005046 63 59 1.0 1.0 0.00 0.00 0.00 76 1019.1
20260507004543 64 131 5.0 7.0 0.00 0.00 0.00 75 1019.1
20260507004040 64 166 2.0 3.0 0.00 0.00 0.00 73 1019.1
20260507003536 65 120 1.0 2.0 0.00 0.00 0.00 72 1018.9
20260507003031 66 116 1.0 2.0 0.00 0.00 0.00 74 1018.9
20260507002528 66 138 2.0 3.0 0.00 0.00 0.00 74 1018.9
20260507002024 67 135 2.0 2.0 0.00 0.00 0.00 69 1019.1
20260507001521 66 35 0.0 1.0 0.00 0.00 0.00 71 1019.1
20260507001018 67 137 2.0 2.0 0.00 0.00 0.00 71 1019.1
20260507000514 66 125 2.0 2.0 0.00 0.00 0.00 72 1019.2
20260507000010 66 141 4.0 5.0 0.00 0.00 0.00 71 1019.0
20260506235507 66 104 2.0 2.0 0.00 0.00 0.00 72 1019.0
20260506235003 67 134 7.0 8.0 0.00 0.00 0.00 71 1018.8
20260506234500 65 72 0.0 0.0 0.00 0.00 0.00 70 1019.0
20260506233958 67 108 3.0 3.0 0.00 0.00 0.00 71 1018.9
20260506233454 67 240 2.0 2.0 0.00 0.00 0.00 71 1019.1
20260506232951 67 104 2.0 2.0 0.00 0.00 0.00 68 1018.8
20260506232447 68 179 4.0 5.0 0.00 0.00 0.00 73 1018.8
20260506231943 68 261 3.0 5.0 0.00 0.00 0.00 70 1018.9
20260506231441 68 202 4.0 6.0 0.00 0.00 0.00 69 1018.9
20260506230938 68 156 3.0 6.0 0.00 0.00 0.00 72 1019.1
20260506230434 68 142 4.0 5.0 0.00 0.00 0.00 69 1019.1
20260506225931 69 121 7.0 9.0 0.00 0.00 0.00 71 1018.9
20260506225428 68 193 3.0 3.0 0.00 0.00 0.00 70 1019.0
20260506224925 68 160 3.0 5.0 0.00 0.00 0.00 72 1019.1
20260506224422 68 155 3.0 5.0 0.00 0.00 0.00 70 1019.0
20260506223919 68 135 4.0 5.0 0.00 0.00 0.00 72 1019.1
20260506223414 68 184 4.0 6.0 0.00 0.00 0.00 71 1019.1
20260506222911 68 142 6.0 8.0 0.00 0.00 0.00 70 1019.4
20260506222408 68 236 3.0 5.0 0.00 0.00 0.00 70 1019.2
20260506221905 69 184 4.0 6.0 0.00 0.00 0.00 72 1019.2
20260506221402 69 90 2.0 2.0 0.00 0.00 0.00 72 1019.2
20260506220859 68 145 5.0 5.0 0.00 0.00 0.00 70 1019.1
20260506220355 68 105 0.0 1.0 0.00 0.00 0.00 71 1019.3
20260506215852 68 118 2.0 2.0 0.00 0.00 0.00 69 1019.3
20260506215348 68 137 5.0 7.0 0.00 0.00 0.00 72 1019.2
20260506214844 67 94 3.0 5.0 0.00 0.00 0.00 70 1019.2
20260506214341 67 108 3.0 3.0 0.00 0.00 0.00 74 1019.5
20260506213839 67 48 4.0 6.0 0.00 0.00 0.00 75 1019.4
20260506213336 67 109 5.0 7.0 0.00 0.00 0.00 68 1019.2
20260506212833 67 88 2.0 5.0 0.00 0.00 0.00 71 1019.3
20260506212329 67 48 1.0 1.0 0.00 0.00 0.00 69 1019.3
20260506211824 67 57 1.0 2.0 0.00 0.00 0.00 73 1019.4
20260506211320 67 83 1.0 2.0 0.00 0.00 0.00 73 1019.2
20260506210818 68 168 1.0 2.0 0.00 0.00 0.00 73 1019.3
20260506210314 65 85 0.0 1.0 0.00 0.00 0.00 72 1019.4
20260506205812 66 111 3.0 3.0 0.00 0.00 0.00 74 1019.4
20260506205307 66 197 3.0 3.0 0.00 0.00 0.00 72 1019.6
20260506204804 65 162 1.0 2.0 0.00 0.00 0.00 78 1019.5
20260506204302 64 151 3.0 3.0 0.00 0.00 0.00 73 1019.5
20260506203800 64 179 3.0 3.0 0.00 0.00 0.00 75 1019.7
20260506203257 66 176 3.0 3.0 0.00 0.00 0.00 76 1019.6
20260506202753 66 178 4.0 5.0 0.00 0.00 0.00 74 1019.5
20260506202250 65 171 3.0 3.0 0.00 0.00 0.00 75 1019.9
20260506201747 63 64 0.0 1.0 0.00 0.00 0.00 78 1019.7
20260506201243 63 145 5.0 6.0 0.00 0.00 0.00 77 1019.6
20260506200741 63 120 3.0 3.0 0.00 0.00 0.00 78 1019.8
20260506200237 64 115 3.0 3.0 0.00 0.00 0.00 75 1019.7
20260506195733 63 107 3.0 3.0 0.00 0.00 0.00 79 1019.8
20260506195230 62 107 4.0 5.0 0.00 0.00 0.00 79 1019.9
20260506194727 62 76 1.0 2.0 0.00 0.00 0.00 77 1019.7
20260506194224 64 80 4.0 5.0 0.00 0.00 0.00 78 1019.4
20260506193722 64 199 4.0 6.0 0.00 0.00 0.00 77 1019.6
20260506193218 64 114 3.0 3.0 0.00 0.00 0.00 83 1019.7
20260506192715 63 37 0.0 1.0 0.00 0.00 0.00 78 1019.9
20260506192212 63 210 1.0 1.0 0.00 0.00 0.00 75 1019.8